This is the latest recevied weather packets stored in our database for station/object W4SPD. If no packets are shown the sender has not sent any weather packets the latest 1 day(s).
| Time | Temp. | Humidity | Pressure | Rain* | Wind** | Luminosity | Snow |
|---|---|---|---|---|---|---|---|
| 1778014825 | 25° C | 38% | - | 0 mm | 0.45 m/s, 154° | - | - |
| 1778014523 | 25.56° C | 38% | - | 0 mm | 1.79 m/s, 200° | - | - |
| 1778014220 | 25.56° C | 40% | - | 0 mm | 0 m/s | - | - |
| 1778013918 | 25.56° C | 39% | - | 0 mm | 0 m/s | - | - |
| 1778013615 | 25° C | 40% | - | 0 mm | 0 m/s | - | - |
| 1778013311 | 25° C | 38% | - | 0 mm | 0.45 m/s, 171° | - | - |
| 1778013008 | 25.56° C | 40% | - | 0 mm | 0.89 m/s, 158° | - | - |
| 1778012704 | 25° C | 38% | - | 0 mm | 0 m/s | - | - |
| 1778012400 | 25° C | 37% | - | 0 mm | 0.45 m/s, 189° | - | - |
| 1778012097 | 25.56° C | 37% | - | 0 mm | 1.34 m/s, 168° | - | - |
| 1778011795 | 25.56° C | 37% | - | 0 mm | 0.45 m/s, 180° | - | - |
| 1778011493 | 25.56° C | 39% | - | 0 mm | 0.89 m/s, 186° | - | - |
| 1778011188 | 25° C | 40% | - | 0 mm | 0 m/s | - | - |
| 1778010886 | 25.56° C | 38% | - | 0 mm | 0.45 m/s, 161° | - | - |
| 1778010583 | 25.56° C | 38% | - | 0 mm | 0.89 m/s, 104° | - | - |
| 1778010280 | 25.56° C | 39% | - | 0 mm | 0.89 m/s, 176° | - | - |
| 1778009980 | 25.56° C | 39% | - | 0 mm | 0.45 m/s, 154° | - | - |
| 1778009678 | 25.56° C | 39% | - | 0 mm | 0.45 m/s, 200° | - | - |
| 1778009376 | 25° C | 41% | - | 0 mm | 0.45 m/s, 140° | - | - |
| 1778009074 | 25° C | 44% | - | 0 mm | 0 m/s | - | - |
| 1778008771 | 25° C | 39% | - | 0 mm | 0.45 m/s, 173° | - | - |
| 1778008469 | 26.11° C | 40% | - | 0 mm | 0.45 m/s, 31° | - | - |
| 1778008161 | 25° C | 40% | - | 0 mm | 0 m/s | - | - |
| 1778007856 | 25° C | 40% | - | 0 mm | 0 m/s | - | - |
| 1778007551 | 24.44° C | 40% | - | 0 mm | 0 m/s | - | - |
* Rain latest hour (hover to see other rain measurements)
** Current wind speed in m/s (hover to see current wind gust speed)